[[{"header":{"parameterUnit":"m.s-1","parameterCategory":1,"la1":30.2991,"la2":30.254,"lo1":-89.0895,"lo2":-89.0444,"dx":0.0017,"dy":0.0017,"nx":28,"ny":28,"refTime":"2023-01-10T15:00:00:Z","depth":0,"parameterNumber":2,"parameterNumberName":"U-component_of_WINDS"},"data":[0,0,0,0,0,0,0,0,0,0,0,0,0,0,0,0,0,0,0,0,0,0,0,0,0,0,0,0,0,0,0,0,0,0,0,0,0,0,0,0,0,0,0,0,0,0,0,0,0,0,0,0,0,0,0,0,0,0,-1.6576,-1.6576,0,-1.6584,-1.6584,-1.6584,-1.6532,-1.653,-1.6529,-1.6528,-1.6537,-1.6539,-1.654,0,0,0,0,0,0,0,0,0,0,0,0,0,-1.6516,-1.6518,-1.6576,-1.6576,-1.6576,-1.6584,-1.6584,-1.6584,-1.6532,-1.653,-1.6529,-1.6527,-1.6537,-1.6538,-1.654,0,0,0,0,0,0,0,0,0,0,0,0,0,-1.6535,-1.6518,-1.6576,-1.6551,-1.6549,-1.6584,-1.6584,-1.6584,-1.6533,-1.653,-1.6528,-1.6526,-1.6536,-1.6538,-1.6541,-1.66,0,0,-1.6548,-1.6549,0,0,0,0,0,0,0,0,-1.6534,-1.6537,-1.6555,-1.6553,-1.655,-1.6555,-1.6566,-1.6589,-1.6533,-1.6539,-1.6528,-1.6525,-1.6545,-1.6546,-1.6553,-1.6601,-1.6601,-1.6548,-1.655,-1.6551,-1.6552,0,0,0,0,0,0,0,-1.6533,-1.6537,-1.6579,-1.6555,-1.6552,-1.654,-1.654,-1.657,-1.6554,-1.6538,-1.6534,-1.6536,-1.6543,-1.6551,-1.6553,-1.6601,-1.6548,-1.655,-1.6552,-1.6553,-1.6697,-1.67,0,0,0,0,0,0,-1.6535,-1.6536,-1.6579,-1.6579,-1.6537,-1.6543,-1.6543,-1.6556,-1.6554,-1.6551,-1.6538,-1.6534,-1.6547,-1.655,-1.6553,-1.6622,-1.6551,-1.6553,-1.6555,-1.6695,-1.6698,-1.6701,0,0,0,0,0,0,-1.6534,-1.6539,-1.6578,-1.6557,-1.6561,-1.6546,-1.6561,-1.6557,-1.6564,-1.6553,-1.655,-1.6548,-1.6546,-1.6549,-1.6588,-1.6621,-1.6554,-1.6556,-1.6692,-1.6696,-1.6699,-1.676,0,0,0,0,0,0,-1.6532,-1.6539,-1.6561,-1.6557,-1.6562,-1.6614,-1.6563,-1.6559,-1.6568,-1.6563,-1.6562,-1.656,-1.6544,-1.6585,-1.6591,-1.6623,-1.6558,-1.6689,-1.6694,-1.6698,-1.6755,-1.6766,-1.6774,0,0,0,0,0,-1.653,-1.6578,-1.6563,-1.6568,-1.6589,-1.6616,-1.6619,-1.6599,-1.6571,-1.6593,-1.6587,-1.656,-1.6617,-1.659,-1.6596,-1.6629,-1.6687,-1.6693,-1.6698,-1.6751,-1.6764,-1.6774,0,0,0,0,0,0,-1.6587,-1.6577,-1.656,-1.6608,-1.6613,-1.6607,-1.6635,-1.6613,-1.6626,-1.662,-1.6596,-1.6596,-1.664,-1.6638,-1.6608,-1.6687,-1.6647,-1.6654,-1.6686,-1.6697,-1.6707,-1.6706,-1.656,0,0,0,0,0,-1.6605,-1.6627,-1.6618,-1.6661,-1.6665,-1.6649,-1.666,-1.6645,-1.6649,-1.6651,-1.6647,-1.6652,-1.6671,-1.6684,-1.6701,-1.6755,-1.6754,-1.6781,-1.6791,-1.6799,-1.6805,-1.6832,-1.6844,-1.6718,-1.6718,-1.6718,0,0,-1.6643,-1.664,-1.6656,-1.6673,-1.6675,-1.6698,-1.6652,-1.6678,-1.6696,-1.6655,-1.6691,-1.6689,-1.6694,-1.674,-1.6761,-1.6741,-1.6839,-1.6805,-1.6812,-1.6813,-1.6839,-1.6851,-1.6862,-1.6722,-1.6721,-1.672,0,0,-1.6723,-1.6724,-1.676,-1.6763,-1.6766,-1.6755,-1.6764,-1.6762,-1.6758,-1.6794,-1.6764,-1.6784,-1.6818,-1.6822,-1.6829,-1.6911,-1.6887,-1.6917,-1.6966,-1.6994,-1.7004,-1.7012,-1.7041,-1.7052,-1.6923,-1.6923,-1.6923,0,-1.6769,-1.6803,-1.6781,-1.681,-1.6818,-1.6782,-1.6818,-1.6823,-1.6832,-1.6838,-1.6816,-1.6856,-1.6857,-1.6904,-1.6924,-1.6931,-1.694,-1.6916,-1.7004,-1.7012,-1.702,-1.7047,-1.7058,-1.6927,-1.6926,-1.6926,-1.6926,0,-1.686,-1.6884,-1.6913,-1.6922,-1.6933,-1.6966,-1.6949,-1.6963,-1.6947,-1.6939,-1.6976,-1.6975,-1.6991,-1.7001,-1.6986,-1.7046,-1.7033,-1.7008,-1.6968,-1.7036,-1.7061,-1.7071,-1.6932,-1.6931,-1.693,-1.6929,0,0,-1.6976,-1.6972,-1.6983,-1.6986,-1.6988,-1.7006,-1.7037,-1.7052,-1.7065,-1.7072,-1.7098,-1.7126,-1.7103,-1.711,-1.7095,-1.7119,-1.7183,-1.709,-1.709,-1.7107,-1.7249,-1.7268,-1.728,-1.7168,-1.717,-1.7171,-1.7248,0,-1.7054,-1.7106,-1.7087,-1.714,-1.7162,-1.7128,-1.7155,-1.7159,-1.7152,-1.717,-1.7163,-1.7183,-1.7151,-1.7155,-1.7177,-1.7171,-1.7211,-1.7165,-1.7191,-1.7192,-1.719,-1.7293,-1.7313,-1.7386,-1.7258,-1.726,-1.7261,0,-1.7151,-1.7162,-1.7218,-1.7215,-1.7223,-1.7248,-1.726,-1.7277,-1.7281,-1.7275,-1.7283,-1.7262,-1.7292,-1.7253,-1.7294,-1.7263,-1.7272,-1.7271,-1.7273,-1.7274,-1.723,-1.7296,-1.7409,-1.7419,-1.7276,-1.7275,-1.7274,0,-1.723,-1.7259,-1.7295,-1.7299,-1.7297,-1.7315,-1.7315,-1.7316,-1.7327,-1.7337,-1.7344,-1.7358,-1.7366,-1.7378,-1.7362,-1.7334,-1.7405,-1.7364,-1.74,-1.7401,-1.7416,-1.7415,-1.7531,-1.7424,-1.7423,-1.7423,-1.7423,0,-1.7318,-1.7353,-1.733,-1.7353,-1.7391,-1.7369,-1.7408,-1.7404,-1.7406,-1.7427,-1.7399,-1.742,-1.7397,-1.7416,-1.7404,-1.7439,-1.7443,-1.7439,-1.7435,-1.7441,-1.7441,-1.7446,-1.744,-1.7426,-1.7425,-1.7425,-1.7424,0,-1.7412,-1.7398,-1.7435,-1.743,-1.743,-1.7458,-1.7453,-1.7474,-1.7466,-1.7493,-1.7498,-1.7485,-1.7505,-1.749,-1.7511,-1.7502,-1.7549,-1.7539,-1.7548,-1.7544,-1.7581,-1.7577,-1.7703,-1.7718,-1.7602,-1.7603,-1.7604,0,-1.7469,-1.7495,-1.7492,-1.7504,-1.7506,-1.7526,-1.7536,-1.7516,-1.7527,-1.7533,-1.7553,-1.7571,-1.7584,-1.7619,-1.7611,-1.7626,-1.7615,-1.7658,-1.7618,-1.7622,-1.7615,-1.7613,-1.7615,-1.7667,-1.7668,-1.7669,-1.767,0,-1.7571,-1.7563,-1.7578,-1.7592,-1.7604,-1.7614,-1.7621,-1.7633,-1.7612,-1.7626,-1.7647,-1.7657,-1.7677,-1.7696,-1.7708,-1.7708,-1.7686,-1.7683,-1.7692,-1.7698,-1.7701,-1.7699,-1.7569,-1.768,-1.7679,-1.7678,-1.7678,-1.7677,-1.7648,-1.7669,-1.767,-1.7688,-1.7692,-1.7699,-1.7718,-1.7712,-1.7728,-1.7743,-1.773,-1.7754,-1.7757,-1.7772,-1.7774,-1.7793,-1.7775,-1.7789,-1.7792,-1.7795,-1.78,-1.7699,-1.7796,-1.7795,-1.7795,-1.7795,-1.7794,0,-1.7748,-1.7747,-1.7764,-1.7775,-1.7789,-1.7767,-1.7773,-1.7787,-1.7808,-1.7813,-1.7826,-1.7849,-1.7867,-1.786,-1.7876,-1.7892,-1.7882,-1.7896,-1.7894,-1.7895,-1.7815,-1.7806,-1.7904,-1.7904,-1.7904,-1.7904,-1.7904,-1.7904,-1.7802,-1.7836,-1.7828,-1.7865,-1.7863,-1.7887,-1.7892,-1.7899,-1.7902,-1.7929,-1.7943,-1.7939,-1.7939,-1.7954,-1.7969,-1.7967,-1.7973,-1.7991,-1.7985,-1.7911,-1.79,-1.789,-1.7881,-1.7993,-1.7993,-1.8063,-1.8063,-1.8064]},{"header":{"parameterUnit":"m.s-1","parameterCategory":1,"la1":30.2991,"la2":30.254,"lo1":-89.0895,"lo2":-89.0444,"dx":0.0017,"dy":0.0017,"nx":28,"ny":28,"refTime":"2023-01-10T15:00:00:Z","depth":0,"parameterNumber":3,"parameterNumberName":"V-component_of_WINDS"},"data":[0,0,0,0,0,0,0,0,0,0,0,0,0,0,0,0,0,0,0,0,0,0,0,0,0,0,0,0,0,0,0,0,0,0,0,0,0,0,0,0,0,0,0,0,0,0,0,0,0,0,0,0,0,0,0,0,0,0,-0.3487,-0.3488,0,-0.3513,-0.3513,-0.3513,-0.3514,-0.3514,-0.3514,-0.3514,-0.3539,-0.354,-0.3541,0,0,0,0,0,0,0,0,0,0,0,0,0,-0.3439,-0.344,-0.3487,-0.3488,-0.3488,-0.3513,-0.3513,-0.3513,-0.3514,-0.3514,-0.3514,-0.3513,-0.3539,-0.354,-0.3541,0,0,0,0,0,0,0,0,0,0,0,0,0,-0.3462,-0.344,-0.3487,-0.3492,-0.3492,-0.3513,-0.3513,-0.3514,-0.3515,-0.3514,-0.3514,-0.3513,-0.3539,-0.354,-0.3541,-0.3559,0,0,-0.3546,-0.3546,0,0,0,0,0,0,0,0,-0.346,-0.3463,-0.3491,-0.3491,-0.3492,-0.351,-0.3505,-0.3529,-0.3515,-0.3506,-0.3514,-0.3513,-0.353,-0.3532,-0.3538,-0.356,-0.3562,-0.3546,-0.3547,-0.3547,-0.3548,0,0,0,0,0,0,0,-0.3459,-0.3462,-0.3497,-0.3491,-0.3492,-0.3492,-0.3495,-0.351,-0.352,-0.3507,-0.3507,-0.351,-0.353,-0.3536,-0.3538,-0.3562,-0.3546,-0.3547,-0.3548,-0.3549,-0.36,-0.36,0,0,0,0,0,0,-0.3456,-0.3461,-0.3497,-0.3498,-0.3475,-0.3493,-0.3496,-0.3505,-0.352,-0.3522,-0.351,-0.351,-0.3534,-0.3537,-0.3539,-0.3561,-0.3547,-0.3549,-0.355,-0.3599,-0.36,-0.36,0,0,0,0,0,0,-0.3455,-0.346,-0.3496,-0.348,-0.3484,-0.3494,-0.3504,-0.3505,-0.3512,-0.3523,-0.3524,-0.3515,-0.3534,-0.3537,-0.3554,-0.3561,-0.3549,-0.3551,-0.3599,-0.3599,-0.36,-0.3604,0,0,0,0,0,0,-0.3454,-0.3459,-0.3466,-0.348,-0.3485,-0.351,-0.3504,-0.3506,-0.3514,-0.3514,-0.3527,-0.3529,-0.3534,-0.3552,-0.3556,-0.3563,-0.3552,-0.3598,-0.3599,-0.36,-0.3603,-0.3604,-0.3606,0,0,0,0,0,-0.3452,-0.3467,-0.3467,-0.3471,-0.3494,-0.3511,-0.3514,-0.3519,-0.3515,-0.3522,-0.3529,-0.3529,-0.356,-0.3554,-0.3558,-0.3566,-0.3598,-0.3599,-0.36,-0.3602,-0.3604,-0.3606,0,0,0,0,0,0,-0.3454,-0.3468,-0.3469,-0.3488,-0.3498,-0.3511,-0.352,-0.3521,-0.3532,-0.3531,-0.3537,-0.354,-0.3557,-0.3563,-0.3556,-0.3584,-0.3578,-0.358,-0.3579,-0.3581,-0.3582,-0.358,-0.3553,0,0,0,0,0,-0.3456,-0.3469,-0.3481,-0.3496,-0.3501,-0.351,-0.3517,-0.352,-0.3531,-0.3535,-0.3543,-0.3554,-0.3566,-0.3574,-0.3586,-0.3604,-0.3607,-0.3612,-0.3613,-0.3614,-0.3616,-0.3625,-0.3627,-0.3604,-0.3604,-0.3604,0,0,-0.3462,-0.3471,-0.3479,-0.3497,-0.3505,-0.3517,-0.3513,-0.3527,-0.3536,-0.3537,-0.3553,-0.356,-0.3572,-0.3589,-0.3597,-0.3595,-0.3623,-0.3615,-0.3616,-0.3617,-0.3626,-0.3628,-0.363,-0.3605,-0.3605,-0.3605,0,0,-0.3477,-0.3486,-0.35,-0.3508,-0.3521,-0.3526,-0.3529,-0.3542,-0.3546,-0.3563,-0.3564,-0.3574,-0.3595,-0.3603,-0.361,-0.3629,-0.3629,-0.3632,-0.364,-0.3649,-0.365,-0.3652,-0.3658,-0.366,-0.3634,-0.3634,-0.3634,0,-0.3482,-0.3501,-0.3507,-0.352,-0.3527,-0.3529,-0.3543,-0.3551,-0.3566,-0.3571,-0.3568,-0.3594,-0.3602,-0.3621,-0.3626,-0.3632,-0.3635,-0.3631,-0.365,-0.3651,-0.3653,-0.3659,-0.3661,-0.3634,-0.3634,-0.3634,-0.3634,0,-0.3506,-0.3519,-0.3529,-0.3544,-0.3552,-0.3566,-0.3573,-0.3581,-0.3583,-0.3589,-0.3605,-0.3615,-0.3628,-0.3633,-0.3635,-0.3652,-0.365,-0.3649,-0.3643,-0.3655,-0.3661,-0.3663,-0.3635,-0.3635,-0.3634,-0.3634,0,0,-0.3524,-0.3541,-0.3545,-0.3551,-0.3565,-0.3575,-0.3588,-0.3601,-0.3608,-0.3618,-0.3629,-0.3646,-0.3645,-0.3652,-0.3656,-0.3664,-0.3677,-0.3661,-0.3661,-0.3663,-0.3695,-0.3696,-0.3698,-0.3677,-0.3677,-0.3678,-0.3694,0,-0.3541,-0.3564,-0.3569,-0.3589,-0.3601,-0.3603,-0.3614,-0.3623,-0.3629,-0.3639,-0.3645,-0.3657,-0.3654,-0.3659,-0.3667,-0.3673,-0.3683,-0.3672,-0.3686,-0.3687,-0.3683,-0.3701,-0.3702,-0.3717,-0.3696,-0.3696,-0.3697,0,-0.3564,-0.3575,-0.3596,-0.3607,-0.3612,-0.3622,-0.3634,-0.3645,-0.3655,-0.3658,-0.3667,-0.3669,-0.3682,-0.3676,-0.3694,-0.3687,-0.3693,-0.3697,-0.3698,-0.3699,-0.3692,-0.3702,-0.3722,-0.3724,-0.37,-0.37,-0.37,0,-0.3573,-0.3593,-0.3609,-0.3614,-0.3628,-0.3635,-0.3641,-0.3651,-0.3659,-0.3669,-0.3674,-0.3686,-0.3692,-0.3701,-0.3706,-0.3702,-0.3723,-0.3718,-0.3726,-0.3726,-0.373,-0.373,-0.375,-0.3735,-0.3735,-0.3735,-0.3735,0,-0.3591,-0.3604,-0.3613,-0.3622,-0.3636,-0.3642,-0.3655,-0.3661,-0.367,-0.368,-0.3683,-0.3692,-0.3699,-0.3709,-0.3713,-0.3727,-0.373,-0.3732,-0.3733,-0.3732,-0.3731,-0.3735,-0.3734,-0.3736,-0.3736,-0.3735,-0.3735,0,-0.3604,-0.3611,-0.3627,-0.3639,-0.3642,-0.3652,-0.3662,-0.3671,-0.3676,-0.3689,-0.3692,-0.3701,-0.3713,-0.3719,-0.3734,-0.3737,-0.3752,-0.3752,-0.3748,-0.3748,-0.3756,-0.3755,-0.3779,-0.3782,-0.3765,-0.3765,-0.3766,0,-0.3615,-0.3625,-0.3638,-0.3645,-0.3651,-0.3662,-0.3669,-0.3675,-0.3683,-0.3695,-0.3702,-0.3714,-0.3724,-0.3743,-0.375,-0.3762,-0.3762,-0.377,-0.3764,-0.3762,-0.3761,-0.3761,-0.3761,-0.3771,-0.3771,-0.3771,-0.3771,0,-0.3633,-0.3636,-0.3647,-0.3658,-0.3667,-0.3677,-0.3686,-0.3691,-0.3699,-0.3707,-0.3719,-0.3727,-0.3742,-0.3754,-0.3766,-0.3771,-0.3772,-0.3773,-0.3775,-0.3774,-0.3771,-0.3772,-0.375,-0.3772,-0.3772,-0.3772,-0.3772,-0.3772,-0.3645,-0.3654,-0.3664,-0.3675,-0.3683,-0.3691,-0.37,-0.3706,-0.3717,-0.3729,-0.3732,-0.3745,-0.3755,-0.377,-0.3777,-0.3787,-0.3785,-0.3788,-0.3789,-0.379,-0.379,-0.377,-0.3789,-0.3789,-0.3789,-0.3789,-0.3789,0,-0.3663,-0.3669,-0.368,-0.3693,-0.3702,-0.3702,-0.3712,-0.372,-0.3731,-0.374,-0.375,-0.3763,-0.3775,-0.3783,-0.3794,-0.38,-0.3801,-0.3803,-0.3802,-0.3803,-0.3791,-0.3787,-0.3802,-0.3802,-0.3802,-0.3802,-0.3802,-0.3802,-0.3673,-0.3687,-0.3691,-0.3708,-0.3715,-0.3727,-0.3733,-0.3741,-0.3748,-0.3763,-0.3772,-0.3778,-0.3786,-0.3798,-0.3808,-0.381,-0.3814,-0.3816,-0.3818,-0.3806,-0.3804,-0.3803,-0.38,-0.3817,-0.3817,-0.383,-0.383,-0.383]}]]